Simultaneous Nadir Overpasses (SNOs) Predictions

Prediction of SNOs between METOP-B and NOAA-19 Satellite Orbit:

Table of predicted SNOs for the next 14.0 days since TLE Epoch: 6/13/2014
Index Date (METOP-B) Time (METOP-B) Lat,Lon (METOP-B) SZA (METOP-B ) Date (NOAA-19) Time (NOAA-19) Lat,Lon (NOAA-19) SZA (NOAA-19 ) Distance(km) Time Diff (sec)
1 06/13/2014 20:07:33 -74.39, 53.96 128.89 06/13/2014 20:06:23 -74.45, 52.00 128.76 58.86 70
2 06/13/2014 20:58:21 74.03,-139.63 50.78 06/13/2014 20:57:21 74.01,-139.62 50.76 2.25 60
3 06/13/2014 21:49:03 -73.98, 27.58 129.28 06/13/2014 21:48:17 -73.99, 27.70 129.26 3.87 46
4 06/13/2014 22:39:43 74.01,-165.02 50.75 06/13/2014 22:39:24 73.98,-165.06 50.73 3.17 19
5 06/13/2014 23:30:25 -73.95, 2.18 129.30 06/13/2014 23:30:20 -73.96, 2.26 129.30 2.31 5
6 06/14/2014 00:21:06 73.93, 169.46 50.68 06/14/2014 00:21:27 73.95, 169.50 50.69 2.15 21
7 06/14/2014 01:11:47 -73.93, -23.21 129.33 06/14/2014 01:12:23 -73.93, -23.18 129.33 0.90 36
8 06/14/2014 02:02:27 73.91, 144.07 50.66 06/14/2014 02:03:29 73.92, 144.06 50.66 1.01 62
9 06/14/2014 02:53:10 -73.81, -48.84 129.44 06/14/2014 02:54:24 -73.85, -48.50 129.42 11.43 74
10 06/24/2014 01:55:12 74.41, 147.06 50.97 06/24/2014 01:54:02 74.42, 145.27 51.05 53.52 70
11 06/24/2014 02:46:00 -74.07, -46.46 129.34 06/24/2014 02:44:53 -74.05, -46.49 129.36 2.85 67
12 06/24/2014 03:36:41 74.04, 120.79 50.63 06/24/2014 03:35:58 74.06, 120.72 50.66 3.03 43
13 06/24/2014 04:27:23 -74.00, -71.97 129.41 06/24/2014 04:26:56 -74.02, -71.93 129.39 2.48 27
14 06/24/2014 05:18:03 74.02, 95.40 50.61 06/24/2014 05:18:01 74.03, 95.28 50.63 3.87 2
15 06/24/2014 06:08:45 -73.98, -97.37 129.43 06/24/2014 06:08:59 -73.99, -97.37 129.42 1.39 14
16 06/24/2014 06:59:26 73.94, 69.88 50.55 06/24/2014 07:00:03 73.95, 69.96 50.55 2.67 37
17 06/24/2014 07:50:07 -73.95,-122.76 129.45 06/24/2014 07:51:02 -73.96,-122.81 129.45 1.59 55
18 06/24/2014 08:40:51 73.77, 44.13 50.39 06/24/2014 08:42:03 73.78, 44.88 50.36 23.48 72




NCC Satellite Simultaneous Nadir Overpasses (SNOs) Prediction Service
